Home   Weather   Stroudsburg   Past weeks

Flag for USA Past Weather in Stroudsburg, Pennsylvania, USA — Yesterday and Last 2 Weeks

Now
6 °F

Clear.


Feels Like: 6 °F
Forecast: 17 / 39 °F
Wind: No wind

Location: Pocono Mountains Municipal Airport

Current Time: Jan 16, 2017 at 5:58:06 am

Latest Report: Jan 16, 2017 at 4:53 am


Visibility: 10 mi

Pressure: 30.44 "Hg

Humidity: 83%

Dew Point: 2 °F

Location of StroudsburgLocation

Past Weather in Stroudsburg — Graph

°F

Stroudsburg Temperature Yesterday

Maximum temperature yesterday: 27 °F (at 2:53 pm)
Minimum temperature yesterday: 11 °F (at 11:53 pm)
Average temperature yesterday: 21 °F

High & Low Weather Summary for the Past Weeks

 TemperatureHumidityPressure
High52 °F (Jan 12, 3:53 pm)100% (Jan 2, 8:02 pm)30.68 "Hg (Jan 2, 8:02 pm)
Low2 °F (Jan 9, 5:53 am)39% (Jan 1, 3:53 pm)29.40 "Hg (Jan 4, 2:10 am)
Average25 °F75%30.17 "Hg
* Reported Jan 1 4:53 am — Jan 16 4:53 am, Stroudsburg, Weather by CustomWeather, © 2017

Note: Actual official high and low records may vary slightly from our data, if they occured in-between our weather recording intervals... More about our weather records

Advertising

Stroudsburg Weather History for the Previous 24 Hours

Scroll right to see more
 ConditionsComfort  
Time TempWeatherWind HumidityBarometerVisibility
4:53 am
Mon, Jan 16
6 °FClear.No wind83%30.44 "Hg10 mi
3:53 am6 °FClear.No wind83%30.44 "Hg10 mi
2:53 am8 °FClear.3 mph83%30.44 "Hg10 mi
1:53 am6 °FClear.No wind83%30.44 "Hg10 mi
12:53 am9 °FClear.No wind80%30.43 "Hg10 mi
11:53 pm
Sun, Jan 15
11 °FClear.No wind88%30.42 "Hg10 mi
10:53 pm15 °FClear.No wind80%30.41 "Hg10 mi
9:53 pm17 °FClear.8 mph83%30.40 "Hg10 mi
8:53 pm16 °FClear.5 mph87%30.41 "Hg10 mi
7:53 pm19 °FClear.8 mph81%30.40 "Hg10 mi
6:53 pm20 °FClear.10 mph78%30.37 "Hg10 mi
5:53 pm22 °FClear.7 mph75%30.38 "Hg10 mi
4:53 pm23 °FSunny.9 mph72%30.37 "Hg10 mi
3:53 pm25 °FSunny.13 mph69%30.34 "Hg10 mi
2:53 pm27 °FSunny.12 mph63%30.34 "Hg10 mi
1:53 pm26 °FPassing clouds.13 mph66%30.33 "Hg10 mi
12:53 pm25 °FScattered clouds.14 mph69%30.34 "Hg10 mi
11:53 am24 °FOvercast.15 mph71%30.37 "Hg10 mi
10:53 am25 °FPartly sunny.12 mph69%30.38 "Hg10 mi
9:53 am23 °FPartly sunny.9 mph74%30.37 "Hg10 mi
8:53 am21 °FSunny.13 mph78%30.35 "Hg10 mi
8:37 am20 °FScattered clouds.15 mph78%30.26 "Hg10 mi
7:53 am20 °FPartly sunny.15 mph82%30.34 "Hg10 mi
7:32 am19 °FPartly sunny.10 mph85%30.25 "Hg10 mi
6:53 am20 °FPassing clouds.10 mph85%30.32 "Hg10 mi
5:53 am21 °FPassing clouds.13 mph85%30.29 "Hg10 mi
Weather by CustomWeather, © 2017

See weather overviewHow to use our weather pages